Time,TemperatureF,DewpointF,PressureIn,WindDirection,WindDirectionDegrees,WindSpeedMPH,WindSpeedGustMPH,Humidity,HourlyPrecipIn,Conditions,Clouds,dailyrainin,SoftwareType,DateUTC
2013-07-08 00:00:00,70.7,68.6,30.12,NNE,22,0.0,0.0,93,0.04,,,0.31,WUHU21523XXSP,2013-07-08 04:00:00,
2013-07-08 00:05:00,70.7,68.6,30.12,NNE,22,0.0,0.0,93,0.06,,,0.00,WUHU21523XXSP,2013-07-08 04:05:00,
2013-07-08 00:10:00,70.7,68.6,30.12,NNE,22,0.0,0.0,93,0.06,,,0.02,WUHU21523XXSP,2013-07-08 04:10:00,
2013-07-08 00:15:00,70.7,68.6,30.12,NNE,22,0.0,0.0,93,0.06,,,0.02,WUHU21523XXSP,2013-07-08 04:15:00,
2013-07-08 00:20:00,70.7,68.6,30.12,NNE,22,0.0,0.0,93,0.06,,,0.02,WUHU21523XXSP,2013-07-08 04:20:00,
2013-07-08 00:25:00,70.7,68.6,30.12,NNE,22,0.0,0.0,93,0.06,,,0.02,WUHU21523XXSP,2013-07-08 04:25:00,
2013-07-08 00:30:00,70.7,68.6,30.12,NNE,22,0.0,0.0,93,0.04,,,0.02,WUHU21523XXSP,2013-07-08 04:30:00,
2013-07-08 00:35:00,70.7,68.6,30.12,NNE,22,0.0,0.0,93,0.04,,,0.02,WUHU21523XXSP,2013-07-08 04:35:00,
2013-07-08 00:40:00,70.7,68.6,30.12,NNE,22,0.0,0.0,93,0.02,,,0.02,WUHU21523XXSP,2013-07-08 04:40:00,
2013-07-08 00:45:00,70.7,68.6,30.12,NNE,22,0.0,0.0,93,0.02,,,0.02,WUHU21523XXSP,2013-07-08 04:45:00,
2013-07-08 00:50:00,70.5,68.6,30.13,NNE,22,0.0,0.0,93,0.02,,,0.02,WUHU21523XXSP,2013-07-08 04:50:00,
2013-07-08 00:55:00,70.7,68.4,30.13,NNE,22,0.0,0.0,93,0.02,,,0.02,WUHU21523XXSP,2013-07-08 04:55:00,
2013-07-08 01:00:00,70.5,68.4,30.13,NNE,22,0.0,0.0,93,0.02,,,0.02,WUHU21523XXSP,2013-07-08 05:00:00,
2013-07-08 01:05:00,70.7,68.6,30.13,NNE,22,0.0,0.0,93,0.00,,,0.02,WUHU21523XXSP,2013-07-08 05:05:00,
2013-07-08 01:10:00,70.5,68.4,30.13,NNE,22,0.0,0.0,93,0.00,,,0.02,WUHU21523XXSP,2013-07-08 05:10:00,
2013-07-08 01:15:00,70.5,68.4,30.13,NNE,22,0.0,0.0,93,0.00,,,0.02,WUHU21523XXSP,2013-07-08 05:15:00,
2013-07-08 01:20:00,70.5,68.4,30.13,NNE,22,0.0,0.0,93,0.00,,,0.02,WUHU21523XXSP,2013-07-08 05:20:00,
2013-07-08 01:25:00,70.5,68.4,30.13,NNE,22,0.0,0.0,93,0.00,,,0.02,WUHU21523XXSP,2013-07-08 05:25:00,
2013-07-08 01:30:00,70.5,68.4,30.13,NNE,22,0.0,0.0,93,0.00,,,0.02,WUHU21523XXSP,2013-07-08 05:30:00,
2013-07-08 01:35:00,70.5,68.4,30.14,NNE,22,0.0,0.0,93,0.00,,,0.02,WUHU21523XXSP,2013-07-08 05:35:00,
2013-07-08 01:40:00,70.5,68.4,30.14,NNE,22,0.0,0.0,93,0.00,,,0.02,WUHU21523XXSP,2013-07-08 05:40:00,
2013-07-08 01:45:00,70.5,68.4,30.13,NNE,22,0.0,0.0,93,0.00,,,0.02,WUHU21523XXSP,2013-07-08 05:45:00,
2013-07-08 01:50:00,70.5,68.4,30.13,NNE,22,0.0,0.0,93,0.00,,,0.02,WUHU21523XXSP,2013-07-08 05:50:00,
2013-07-08 01:55:00,70.5,68.4,30.13,NNE,22,0.0,0.0,93,0.00,,,0.02,WUHU21523XXSP,2013-07-08 05:55:00,
2013-07-08 02:00:00,70.5,68.4,30.13,NNE,22,0.0,0.0,93,0.00,,,0.02,WUHU21523XXSP,2013-07-08 06:00:00,
2013-07-08 02:05:00,70.5,68.4,30.13,NNE,22,0.0,0.0,93,0.00,,,0.02,WUHU21523XXSP,2013-07-08 06:05:00,
2013-07-08 02:10:00,70.5,68.4,30.13,NNE,22,0.0,0.0,93,0.00,,,0.02,WUHU21523XXSP,2013-07-08 06:10:00,
2013-07-08 02:15:00,70.5,68.4,30.13,NNE,22,0.0,0.0,93,0.00,,,0.02,WUHU21523XXSP,2013-07-08 06:15:00,
2013-07-08 02:20:00,70.5,68.4,30.13,NNE,22,0.0,0.0,93,0.00,,,0.02,WUHU21523XXSP,2013-07-08 06:20:00,
2013-07-08 02:25:00,70.5,68.4,30.12,NNE,22,0.0,0.0,93,0.00,,,0.02,WUHU21523XXSP,2013-07-08 06:25:00,
2013-07-08 02:30:00,70.5,68.4,30.13,NNE,22,0.0,0.0,93,0.00,,,0.02,WUHU21523XXSP,2013-07-08 06:30:00,
2013-07-08 02:35:00,70.5,68.4,30.12,NNE,22,0.0,0.0,93,0.00,,,0.02,WUHU21523XXSP,2013-07-08 06:35:00,
2013-07-08 02:40:00,70.3,68.2,30.12,NNE,22,0.0,0.0,93,0.00,,,0.02,WUHU21523XXSP,2013-07-08 06:40:00,
2013-07-08 02:45:00,70.3,68.2,30.12,NNE,22,0.0,0.0,93,0.00,,,0.02,WUHU21523XXSP,2013-07-08 06:45:00,
2013-07-08 02:50:00,70.3,68.2,30.12,NNE,22,0.0,0.0,93,0.00,,,0.02,WUHU21523XXSP,2013-07-08 06:50:00,
2013-07-08 02:55:00,70.3,68.2,30.12,NNE,22,0.0,0.0,93,0.00,,,0.02,WUHU21523XXSP,2013-07-08 06:55:00,
2013-07-08 03:00:00,70.3,68.2,30.12,NNE,22,0.0,0.0,93,0.00,,,0.02,WUHU21523XXSP,2013-07-08 07:00:00,
2013-07-08 03:05:00,70.3,68.2,30.12,NNE,22,0.0,0.0,93,0.00,,,0.02,WUHU21523XXSP,2013-07-08 07:05:00,
2013-07-08 03:10:00,70.3,68.2,30.12,NNE,22,0.0,0.0,93,0.00,,,0.02,WUHU21523XXSP,2013-07-08 07:10:00,
2013-07-08 03:15:00,70.3,68.2,30.12,NNE,22,0.0,0.0,93,0.00,,,0.02,WUHU21523XXSP,2013-07-08 07:15:00,
2013-07-08 03:20:00,70.3,68.2,30.12,NNE,22,0.0,0.0,93,0.00,,,0.02,WUHU21523XXSP,2013-07-08 07:20:00,
2013-07-08 03:25:00,70.3,68.2,30.12,NNE,22,0.0,0.0,93,0.00,,,0.02,WUHU21523XXSP,2013-07-08 07:25:00,
2013-07-08 03:30:00,70.3,68.2,30.11,NNE,22,0.0,0.0,93,0.00,,,0.02,WUHU21523XXSP,2013-07-08 07:30:00,
2013-07-08 03:35:00,70.2,68.0,30.11,NNE,22,0.0,0.0,93,0.00,,,0.02,WUHU21523XXSP,2013-07-08 07:35:00,
2013-07-08 03:40:00,70.2,68.0,30.12,NNE,22,0.0,0.0,93,0.00,,,0.02,WUHU21523XXSP,2013-07-08 07:40:00,
2013-07-08 03:45:00,70.2,68.0,30.12,NNE,22,0.0,0.0,93,0.00,,,0.02,WUHU21523XXSP,2013-07-08 07:45:00,
2013-07-08 03:50:00,70.2,68.0,30.11,NNE,22,0.0,0.0,93,0.00,,,0.02,WUHU21523XXSP,2013-07-08 07:50:00,
2013-07-08 03:55:00,70.0,67.8,30.11,NNE,22,0.0,0.0,93,0.00,,,0.02,WUHU21523XXSP,2013-07-08 07:55:00,
2013-07-08 04:00:00,70.0,67.8,30.11,NNE,22,0.0,0.0,93,0.00,,,0.02,WUHU21523XXSP,2013-07-08 08:00:00,
2013-07-08 04:05:00,70.0,67.8,30.12,NNE,22,0.0,0.0,93,0.00,,,0.02,WUHU21523XXSP,2013-07-08 08:05:00,
2013-07-08 04:10:00,70.0,67.8,30.11,NNE,22,0.0,0.0,93,0.00,,,0.02,WUHU21523XXSP,2013-07-08 08:10:00,
2013-07-08 04:15:00,69.8,67.7,30.11,NNE,22,0.0,0.0,93,0.00,,,0.02,WUHU21523XXSP,2013-07-08 08:15:00,
2013-07-08 04:20:00,69.8,67.7,30.11,NNE,22,0.0,0.0,93,0.00,,,0.02,WUHU21523XXSP,2013-07-08 08:20:00,
2013-07-08 04:25:00,69.6,67.5,30.11,NNE,22,0.0,0.0,93,0.00,,,0.02,WUHU21523XXSP,2013-07-08 08:25:00,
2013-07-08 04:30:00,69.6,67.5,30.11,NNE,22,0.0,0.0,93,0.00,,,0.02,WUHU21523XXSP,2013-07-08 08:30:00,
2013-07-08 04:35:00,69.6,67.5,30.12,NNE,22,0.0,0.0,93,0.00,,,0.02,WUHU21523XXSP,2013-07-08 08:35:00,
2013-07-08 04:40:00,69.6,67.5,30.12,NNE,22,0.0,0.0,93,0.00,,,0.02,WUHU21523XXSP,2013-07-08 08:40:00,
2013-07-08 04:45:00,69.6,67.5,30.11,NNE,22,0.0,0.0,93,0.00,,,0.02,WUHU21523XXSP,2013-07-08 08:45:00,
2013-07-08 04:50:00,69.4,67.3,30.11,NNE,22,0.0,0.0,93,0.00,,,0.02,WUHU21523XXSP,2013-07-08 08:50:00,
2013-07-08 04:55:00,69.4,67.3,30.12,NNE,22,0.0,0.0,93,0.00,,,0.02,WUHU21523XXSP,2013-07-08 08:55:00,
2013-07-08 05:00:00,69.4,67.3,30.12,NNE,22,0.0,0.0,93,0.00,,,0.02,WUHU21523XXSP,2013-07-08 09:00:00,
2013-07-08 05:05:00,69.4,67.3,30.11,NNE,22,0.0,0.0,93,0.00,,,0.02,WUHU21523XXSP,2013-07-08 09:05:00,
2013-07-08 05:10:00,69.4,67.3,30.12,NNE,22,0.0,0.0,93,0.00,,,0.02,WUHU21523XXSP,2013-07-08 09:10:00,
2013-07-08 05:15:00,69.3,67.1,30.11,NNE,22,0.0,0.0,93,0.00,,,0.02,WUHU21523XXSP,2013-07-08 09:15:00,
2013-07-08 05:20:00,69.1,66.9,30.12,NNE,22,0.0,0.0,93,0.00,,,0.02,WUHU21523XXSP,2013-07-08 09:20:00,
2013-07-08 05:25:00,69.1,66.9,30.12,NNE,22,0.0,0.0,93,0.00,,,0.02,WUHU21523XXSP,2013-07-08 09:25:00,
2013-07-08 05:30:00,69.1,66.9,30.12,NNE,22,0.0,0.0,93,0.00,,,0.02,WUHU21523XXSP,2013-07-08 09:30:00,
2013-07-08 05:35:00,68.9,66.8,30.12,NNE,22,0.0,0.0,93,0.00,,,0.02,WUHU21523XXSP,2013-07-08 09:35:00,
2013-07-08 05:40:00,68.9,66.8,30.12,NNE,22,0.0,0.0,93,0.00,,,0.02,WUHU21523XXSP,2013-07-08 09:40:00,
2013-07-08 05:45:00,68.9,66.8,30.12,NNE,22,0.0,0.0,93,0.00,,,0.02,WUHU21523XXSP,2013-07-08 09:45:00,
2013-07-08 05:50:00,68.7,66.6,30.12,NNE,22,0.0,0.0,93,0.00,,,0.02,WUHU21523XXSP,2013-07-08 09:50:00,
2013-07-08 05:55:00,68.7,66.6,30.12,NNE,22,0.0,0.0,93,0.00,,,0.02,WUHU21523XXSP,2013-07-08 09:55:00,
2013-07-08 06:00:00,68.7,66.6,30.12,NNE,22,0.0,0.0,93,0.00,,,0.02,WUHU21523XXSP,2013-07-08 10:00:00,
2013-07-08 06:05:00,68.7,66.6,30.13,NNE,22,0.0,0.0,93,0.00,,,0.02,WUHU21523XXSP,2013-07-08 10:05:00,
2013-07-08 06:10:00,68.7,66.6,30.12,NNE,22,0.0,0.0,93,0.00,,,0.02,WUHU21523XXSP,2013-07-08 10:10:00,
2013-07-08 06:15:00,68.7,66.6,30.13,NNE,22,0.0,0.0,93,0.00,,,0.02,WUHU21523XXSP,2013-07-08 10:15:00,
2013-07-08 06:20:00,68.7,66.6,30.13,NNE,22,0.0,0.0,93,0.00,,,0.02,WUHU21523XXSP,2013-07-08 10:20:00,
2013-07-08 06:25:00,68.5,66.4,30.13,NNE,22,0.0,0.0,93,0.00,,,0.02,WUHU21523XXSP,2013-07-08 10:25:00,
2013-07-08 06:30:00,68.5,66.4,30.13,NNE,22,0.0,0.0,93,0.00,,,0.02,WUHU21523XXSP,2013-07-08 10:30:00,
2013-07-08 06:35:00,68.5,66.4,30.13,NNE,22,0.0,0.0,93,0.00,,,0.02,WUHU21523XXSP,2013-07-08 10:35:00,
2013-07-08 06:40:00,68.5,66.4,30.13,NNE,22,0.0,0.0,93,0.00,,,0.02,WUHU21523XXSP,2013-07-08 10:40:00,
2013-07-08 06:45:00,68.5,66.4,30.13,NNE,22,0.0,0.0,93,0.00,,,0.02,WUHU21523XXSP,2013-07-08 10:45:00,
2013-07-08 06:50:00,68.5,66.4,30.14,NNE,22,0.0,0.0,93,0.00,,,0.02,WUHU21523XXSP,2013-07-08 10:50:00,
2013-07-08 06:55:00,68.5,66.4,30.13,NNE,22,0.0,0.0,93,0.00,,,0.02,WUHU21523XXSP,2013-07-08 10:55:00,
2013-07-08 07:00:00,68.5,66.4,30.13,NNE,22,0.0,0.0,93,0.00,,,0.02,WUHU21523XXSP,2013-07-08 11:00:00,
2013-07-08 07:05:00,68.5,66.4,30.14,NNE,22,0.0,0.0,93,0.00,,,0.02,WUHU21523XXSP,2013-07-08 11:05:00,
2013-07-08 07:10:00,68.7,66.6,30.14,NNE,22,0.0,0.0,93,0.00,,,0.02,WUHU21523XXSP,2013-07-08 11:10:00,
2013-07-08 07:15:00,68.7,66.6,30.14,NNE,22,0.0,0.0,93,0.00,,,0.02,WUHU21523XXSP,2013-07-08 11:15:00,
2013-07-08 07:20:00,68.5,66.4,30.14,NNE,22,0.0,0.0,93,0.00,,,0.02,WUHU21523XXSP,2013-07-08 11:20:00,
2013-07-08 07:25:00,68.5,66.4,30.14,NNE,22,0.0,0.0,93,0.00,,,0.02,WUHU21523XXSP,2013-07-08 11:25:00,
2013-07-08 07:30:00,68.7,66.6,30.14,NNE,22,0.0,0.0,93,0.00,,,0.02,WUHU21523XXSP,2013-07-08 11:30:00,
2013-07-08 07:35:00,68.7,66.6,30.14,NNE,22,0.0,0.0,93,0.00,,,0.02,WUHU21523XXSP,2013-07-08 11:35:00,
2013-07-08 07:40:00,68.7,66.6,30.15,NNE,22,0.0,0.0,93,0.00,,,0.02,WUHU21523XXSP,2013-07-08 11:40:00,
2013-07-08 07:45:00,68.7,66.6,30.15,NNE,22,0.0,0.0,93,0.00,,,0.02,WUHU21523XXSP,2013-07-08 11:45:00,
2013-07-08 07:50:00,68.9,66.8,30.15,NNE,22,0.0,0.0,93,0.00,,,0.02,WUHU21523XXSP,2013-07-08 11:50:00,
2013-07-08 07:55:00,68.9,66.8,30.15,NNE,22,0.0,0.0,93,0.00,,,0.02,WUHU21523XXSP,2013-07-08 11:55:00,
2013-07-08 08:00:00,69.1,67.2,30.15,NNE,22,0.0,0.0,94,0.00,,,0.02,WUHU21523XXSP,2013-07-08 12:00:00,
2013-07-08 08:05:00,69.1,67.2,30.15,NNE,22,0.0,0.0,94,0.00,,,0.02,WUHU21523XXSP,2013-07-08 12:05:00,
2013-07-08 08:10:00,69.3,67.4,30.16,NNE,22,0.0,0.0,94,0.00,,,0.02,WUHU21523XXSP,2013-07-08 12:10:00,
2013-07-08 08:15:00,69.3,67.4,30.16,NNE,22,0.0,0.0,94,0.00,,,0.02,WUHU21523XXSP,2013-07-08 12:15:00,
2013-07-08 08:20:00,69.4,67.6,30.15,NNE,22,0.0,0.0,94,0.00,,,0.02,WUHU21523XXSP,2013-07-08 12:20:00,
2013-07-08 08:25:00,69.6,67.8,30.15,NNE,22,0.0,0.0,94,0.00,,,0.02,WUHU21523XXSP,2013-07-08 12:25:00,
2013-07-08 08:30:00,69.6,67.8,30.15,NNE,22,0.0,0.0,94,0.00,,,0.02,WUHU21523XXSP,2013-07-08 12:30:00,
2013-07-08 08:35:00,69.6,67.8,30.16,NNE,22,0.0,0.0,94,0.00,,,0.02,WUHU21523XXSP,2013-07-08 12:35:00,
2013-07-08 08:40:00,69.6,67.8,30.16,NNE,22,0.0,0.0,94,0.00,,,0.02,WUHU21523XXSP,2013-07-08 12:40:00,
2013-07-08 08:45:00,69.8,68.0,30.16,NNE,22,0.0,0.0,94,0.00,,,0.02,WUHU21523XXSP,2013-07-08 12:45:00,
2013-07-08 08:50:00,69.8,68.0,30.15,NNE,22,0.0,0.0,94,0.00,,,0.02,WUHU21523XXSP,2013-07-08 12:50:00,
2013-07-08 08:55:00,70.0,68.1,30.15,NNE,22,0.0,0.0,94,0.00,,,0.02,WUHU21523XXSP,2013-07-08 12:55:00,
2013-07-08 09:00:00,70.2,68.3,30.16,NNE,22,0.0,0.0,94,0.00,,,0.02,WUHU21523XXSP,2013-07-08 13:00:00,
2013-07-08 09:05:00,70.2,68.3,30.15,NNE,22,0.0,0.0,94,0.00,,,0.02,WUHU21523XXSP,2013-07-08 13:05:00,
2013-07-08 09:10:00,70.3,68.2,30.16,NNE,22,0.0,0.0,93,0.00,,,0.02,WUHU21523XXSP,2013-07-08 13:10:00,
2013-07-08 09:15:00,70.5,68.4,30.16,NNE,22,0.0,0.0,93,0.00,,,0.02,WUHU21523XXSP,2013-07-08 13:15:00,
2013-07-08 09:20:00,70.7,68.6,30.16,NNE,22,0.0,0.0,93,0.00,,,0.02,WUHU21523XXSP,2013-07-08 13:20:00,
2013-07-08 09:25:00,70.9,68.7,30.16,NNE,22,0.0,0.0,93,0.00,,,0.02,WUHU21523XXSP,2013-07-08 13:25:00,
2013-07-08 09:30:00,71.2,69.1,30.17,NNE,22,0.0,0.0,93,0.00,,,0.02,WUHU21523XXSP,2013-07-08 13:30:00,
2013-07-08 09:35:00,71.2,69.1,30.17,NNE,22,0.0,0.0,93,0.00,,,0.02,WUHU21523XXSP,2013-07-08 13:35:00,
2013-07-08 09:40:00,71.4,69.0,30.17,NNE,22,0.0,0.0,92,0.00,,,0.02,WUHU21523XXSP,2013-07-08 13:40:00,
2013-07-08 09:45:00,71.8,69.3,30.17,NNE,22,0.0,0.0,92,0.00,,,0.02,WUHU21523XXSP,2013-07-08 13:45:00,
2013-07-08 09:50:00,72.0,69.5,30.17,NNE,22,0.0,0.0,92,0.00,,,0.02,WUHU21523XXSP,2013-07-08 13:50:00,
2013-07-08 09:55:00,72.3,69.6,30.17,NNE,22,0.0,0.0,91,0.00,,,0.02,WUHU21523XXSP,2013-07-08 13:55:00,
2013-07-08 10:00:00,72.7,69.9,30.17,NNE,22,0.0,0.0,91,0.00,,,0.02,WUHU21523XXSP,2013-07-08 14:00:00,
2013-07-08 10:05:00,73.0,70.3,30.17,NNE,22,0.0,0.0,91,0.00,,,0.02,WUHU21523XXSP,2013-07-08 14:05:00,
2013-07-08 10:10:00,73.2,69.8,30.17,NW,315,0.0,0.0,89,0.00,,,0.02,WUHU21523XXSP,2013-07-08 14:10:00,
2013-07-08 10:15:00,73.4,70.0,30.17,NW,315,0.0,0.0,89,0.00,,,0.02,WUHU21523XXSP,2013-07-08 14:15:00,
2013-07-08 10:20:00,73.6,69.8,30.17,NW,315,0.0,0.0,88,0.00,,,0.02,WUHU21523XXSP,2013-07-08 14:20:00,
2013-07-08 10:25:00,73.9,70.5,30.17,North,0,0.0,0.0,89,0.00,,,0.02,WUHU21523XXSP,2013-07-08 14:25:00,
2013-07-08 10:30:00,74.1,70.5,30.17,North,0,0.0,0.0,89,0.00,,,0.02,WUHU21523XXSP,2013-07-08 14:30:00,
2013-07-08 10:35:00,74.3,70.2,30.17,NNE,22,1.3,1.6,87,0.00,,,0.02,WUHU21523XXSP,2013-07-08 14:35:00,
2013-07-08 10:40:00,74.8,70.8,30.17,ENE,67,1.8,1.8,87,0.00,,,0.02,WUHU21523XXSP,2013-07-08 14:40:00,
2013-07-08 10:45:00,74.8,70.8,30.17,NE,45,0.7,1.8,87,0.00,,,0.02,WUHU21523XXSP,2013-07-08 14:45:00,
2013-07-08 10:50:00,75.0,70.6,30.17,NE,45,0.7,1.8,86,0.00,,,0.02,WUHU21523XXSP,2013-07-08 14:50:00,
2013-07-08 10:55:00,75.2,70.8,30.17,NE,45,0.0,0.7,86,0.00,,,0.02,WUHU21523XXSP,2013-07-08 14:55:00,
2013-07-08 11:00:00,75.4,70.9,30.18,NE,45,0.0,0.0,86,0.00,,,0.02,WUHU21523XXSP,2013-07-08 15:00:00,
2013-07-08 11:05:00,75.4,70.6,30.18,NE,45,0.0,0.0,85,0.00,,,0.02,WUHU21523XXSP,2013-07-08 15:05:00,
2013-07-08 11:10:00,75.4,70.6,30.17,NE,45,0.0,0.0,85,0.00,,,0.02,WUHU21523XXSP,2013-07-08 15:10:00,
2013-07-08 11:15:00,75.6,70.8,30.17,NE,45,0.0,0.0,85,0.00,,,0.02,WUHU21523XXSP,2013-07-08 15:15:00,
2013-07-08 11:20:00,75.7,70.9,30.17,NNE,22,0.0,0.0,85,0.00,,,0.02,WUHU21523XXSP,2013-07-08 15:20:00,
2013-07-08 11:25:00,75.9,70.8,30.17,ENE,67,0.0,0.0,84,0.00,,,0.02,WUHU21523XXSP,2013-07-08 15:25:00,
2013-07-08 11:30:00,76.1,70.6,30.17,ENE,67,0.0,0.0,83,0.00,,,0.02,WUHU21523XXSP,2013-07-08 15:30:00,
2013-07-08 11:35:00,75.9,70.4,30.18,ENE,67,0.0,0.0,83,0.00,,,0.02,WUHU21523XXSP,2013-07-08 15:35:00,
2013-07-08 11:40:00,75.9,70.8,30.17,NE,45,0.0,0.0,84,0.00,,,0.02,WUHU21523XXSP,2013-07-08 15:40:00,
2013-07-08 11:45:00,76.1,70.6,30.18,NE,45,0.0,0.0,83,0.00,,,0.02,WUHU21523XXSP,2013-07-08 15:45:00,
2013-07-08 11:50:00,76.5,70.6,30.18,NE,45,1.8,1.8,82,0.00,,,0.02,WUHU21523XXSP,2013-07-08 15:50:00,
2013-07-08 11:55:00,76.5,70.6,30.18,South,180,0.0,1.8,82,0.00,,,0.02,WUHU21523XXSP,2013-07-08 15:55:00,
2013-07-08 12:00:00,76.3,70.4,30.18,South,180,0.0,0.0,82,0.00,,,0.02,WUHU21523XXSP,2013-07-08 16:00:00,
2013-07-08 12:05:00,76.3,70.4,30.17,South,180,0.0,0.0,82,0.00,,,0.02,WUHU21523XXSP,2013-07-08 16:05:00,
2013-07-08 12:10:00,76.5,70.2,30.18,WSW,247,1.3,1.3,81,0.00,,,0.02,WUHU21523XXSP,2013-07-08 16:10:00,
2013-07-08 12:15:00,76.5,70.2,30.17,WSW,247,1.3,1.3,81,0.00,,,0.02,WUHU21523XXSP,2013-07-08 16:15:00,
2013-07-08 12:20:00,76.3,70.4,30.17,South,180,0.0,1.3,82,0.00,,,0.02,WUHU21523XXSP,2013-07-08 16:20:00,
2013-07-08 12:25:00,76.3,70.4,30.17,South,180,0.0,0.0,82,0.00,,,0.02,WUHU21523XXSP,2013-07-08 16:25:00,
2013-07-08 12:30:00,76.8,70.9,30.17,NNE,22,0.0,0.0,82,0.00,,,0.02,WUHU21523XXSP,2013-07-08 16:30:00,
2013-07-08 12:35:00,77.2,71.2,30.17,NNE,22,0.0,0.0,82,0.00,,,0.02,WUHU21523XXSP,2013-07-08 16:35:00,
2013-07-08 12:40:00,77.5,71.2,30.17,SSE,157,0.0,0.0,81,0.00,,,0.02,WUHU21523XXSP,2013-07-08 16:40:00,
2013-07-08 12:45:00,77.9,71.6,30.17,North,0,0.0,0.0,81,0.00,,,0.02,WUHU21523XXSP,2013-07-08 16:45:00,
2013-07-08 12:50:00,78.1,70.6,30.17,NE,45,0.0,0.0,78,0.00,,,0.02,WUHU21523XXSP,2013-07-08 16:50:00,
2013-07-08 12:55:00,78.1,70.6,30.17,ESE,112,0.0,0.0,78,0.00,,,0.02,WUHU21523XXSP,2013-07-08 16:55:00,
2013-07-08 13:00:00,77.9,70.5,30.16,ESE,112,0.0,0.0,78,0.00,,,0.02,WUHU21523XXSP,2013-07-08 17:00:00,
2013-07-08 13:05:00,77.7,70.3,30.16,SE,135,0.0,0.0,78,0.00,,,0.02,WUHU21523XXSP,2013-07-08 17:05:00,
2013-07-08 13:10:00,77.7,70.7,30.16,East,90,0.0,0.0,79,0.00,,,0.02,WUHU21523XXSP,2013-07-08 17:10:00,
2013-07-08 13:16:00,77.7,70.3,30.17,SE,135,0.0,0.0,78,0.00,,,0.02,WUHU21523XXSP,2013-07-08 17:16:00,
2013-07-08 13:25:00,77.9,70.5,30.16,WSW,247,0.0,0.0,78,0.00,,,0.02,WUHU21523XXSP,2013-07-08 17:25:00,
2013-07-08 13:30:00,77.9,70.5,30.15,WSW,247,0.0,0.0,78,0.00,,,0.02,WUHU21523XXSP,2013-07-08 17:30:00,
2013-07-08 13:35:00,77.9,70.5,30.15,WSW,247,0.0,0.0,78,0.00,,,0.02,WUHU21523XXSP,2013-07-08 17:35:00,
2013-07-08 13:41:00,78.1,70.6,30.15,South,180,0.0,0.0,78,0.00,,,0.02,WUHU21523XXSP,2013-07-08 17:41:00,
2013-07-08 13:51:00,78.4,71.0,30.15,NNW,337,0.0,0.0,78,0.00,,,0.02,WUHU21523XXSP,2013-07-08 17:51:00,
2013-07-08 13:56:00,78.6,71.2,30.15,South,180,2.7,2.7,78,0.00,,,0.02,WUHU21523XXSP,2013-07-08 17:56:00,
2013-07-08 14:05:00,79.0,70.7,30.15,East,90,0.0,2.7,76,0.00,,,0.02,WUHU21523XXSP,2013-07-08 18:05:00,
2013-07-08 14:11:00,79.3,71.5,30.15,South,180,0.0,0.0,77,0.00,,,0.02,WUHU21523XXSP,2013-07-08 18:11:00,
2013-07-08 14:21:00,80.1,71.4,30.15,WSW,247,1.6,1.6,75,0.00,,,0.02,WUHU21523XXSP,2013-07-08 18:21:00,
2013-07-08 14:30:00,80.2,71.2,30.14,South,180,0.0,1.8,74,0.00,,,0.02,WUHU21523XXSP,2013-07-08 18:30:00,
2013-07-08 14:35:00,80.4,71.4,30.14,NNE,22,0.0,0.0,74,0.00,,,0.02,WUHU21523XXSP,2013-07-08 18:35:00,
2013-07-08 14:41:00,80.4,71.4,30.14,SSE,157,0.0,4.9,74,0.00,,,0.02,WUHU21523XXSP,2013-07-08 18:41:00,
2013-07-08 14:51:00,80.4,70.6,30.13,SSE,157,0.0,0.0,72,0.00,,,0.02,WUHU21523XXSP,2013-07-08 18:51:00,
2013-07-08 15:01:00,81.0,71.1,30.13,SW,225,0.0,0.0,72,0.00,,,0.02,WUHU21523XXSP,2013-07-08 19:01:00,
2013-07-08 15:11:00,81.1,71.7,30.13,SW,225,0.0,0.0,73,0.00,,,0.02,WUHU21523XXSP,2013-07-08 19:11:00,
2013-07-08 15:20:00,81.3,71.8,30.13,SSW,202,0.0,0.9,73,0.00,,,0.02,WUHU21523XXSP,2013-07-08 19:20:00,
2013-07-08 15:26:00,81.1,71.3,30.13,SW,225,0.0,0.0,72,0.00,,,0.02,WUHU21523XXSP,2013-07-08 19:26:00,
2013-07-08 15:36:00,81.0,71.5,30.12,SE,135,0.0,0.0,73,0.00,,,0.02,WUHU21523XXSP,2013-07-08 19:36:00,
2013-07-08 15:46:00,80.8,71.3,30.12,NE,45,0.0,0.0,73,0.00,,,0.02,WUHU21523XXSP,2013-07-08 19:46:00,
2013-07-08 15:55:00,81.3,71.0,30.12,SSW,202,0.0,2.0,71,0.00,,,0.02,WUHU21523XXSP,2013-07-08 19:55:00,
2013-07-08 16:00:00,81.3,71.4,30.12,SE,135,0.0,2.0,72,0.00,,,0.02,WUHU21523XXSP,2013-07-08 20:00:00,
2013-07-08 16:06:00,81.1,71.7,30.12,SE,135,0.0,0.0,73,0.00,,,0.02,WUHU21523XXSP,2013-07-08 20:06:00,
2013-07-08 16:16:00,81.3,72.2,30.11,SE,135,0.0,0.0,74,0.00,,,0.02,WUHU21523XXSP,2013-07-08 20:16:00,
2013-07-08 16:26:00,81.7,72.6,30.11,SW,225,0.0,0.0,74,0.00,,,0.02,WUHU21523XXSP,2013-07-08 20:26:00,
2013-07-08 16:31:00,81.7,71.8,30.11,NW,315,0.0,0.0,72,0.00,,,0.02,WUHU21523XXSP,2013-07-08 20:31:00,
2013-07-08 16:41:00,81.5,71.6,30.11,South,180,0.0,1.3,73,0.00,,,0.02,WUHU21523XXSP,2013-07-08 20:41:00,
2013-07-08 16:46:00,81.7,72.2,30.10,WNW,292,0.0,0.0,73,0.00,,,0.02,WUHU21523XXSP,2013-07-08 20:46:00,
2013-07-08 16:51:00,81.7,72.2,30.10,NNW,337,0.0,0.0,73,0.00,,,0.02,WUHU21523XXSP,2013-07-08 20:51:00,
2013-07-08 16:56:00,81.5,72.0,30.10,NE,45,0.0,0.0,73,0.00,,,0.02,WUHU21523XXSP,2013-07-08 20:56:00,
2013-07-08 17:06:00,81.3,72.2,30.10,NE,45,0.0,0.0,74,0.00,,,0.02,WUHU21523XXSP,2013-07-08 21:06:00,
2013-07-08 17:11:00,81.1,72.1,30.10,NE,45,0.0,0.0,74,0.00,,,0.02,WUHU21523XXSP,2013-07-08 21:11:00,
2013-07-08 17:21:00,81.1,71.7,30.09,SSW,202,0.0,0.0,74,0.00,,,0.02,WUHU21523XXSP,2013-07-08 21:21:00,
2013-07-08 17:26:00,81.1,72.1,30.09,SE,135,0.0,0.0,74,0.00,,,0.02,WUHU21523XXSP,2013-07-08 21:26:00,
2013-07-08 17:31:00,81.0,72.3,30.09,ESE,112,0.0,0.0,75,0.00,,,0.02,WUHU21523XXSP,2013-07-08 21:31:00,
2013-07-08 17:41:00,81.0,72.3,30.09,ESE,112,0.0,0.0,75,0.00,,,0.02,WUHU21523XXSP,2013-07-08 21:41:00,
2013-07-08 17:51:00,81.0,72.7,30.08,ENE,67,0.0,0.0,76,0.00,,,0.02,WUHU21523XXSP,2013-07-08 21:51:00,
2013-07-08 18:01:00,81.1,72.5,30.08,SSE,157,0.0,0.0,75,0.00,,,0.02,WUHU21523XXSP,2013-07-08 22:01:00,
2013-07-08 18:06:00,81.3,72.2,30.08,NE,45,1.3,1.3,74,0.00,,,0.02,WUHU21523XXSP,2013-07-08 22:06:00,
2013-07-08 18:16:00,81.3,72.2,30.08,NE,45,0.0,1.3,74,0.00,,,0.02,WUHU21523XXSP,2013-07-08 22:16:00,
2013-07-08 18:26:00,80.8,72.1,30.09,NE,45,0.0,0.0,75,0.00,,,0.02,WUHU21523XXSP,2013-07-08 22:26:00,
2013-07-08 18:31:00,80.8,72.1,30.09,NE,45,0.0,0.0,75,0.00,,,0.02,WUHU21523XXSP,2013-07-08 22:31:00,
2013-07-08 18:36:00,80.6,72.0,30.09,NE,45,0.0,0.0,75,0.00,,,0.02,WUHU21523XXSP,2013-07-08 22:36:00,
2013-07-08 18:41:00,80.4,71.4,30.09,NE,45,0.0,0.0,74,0.00,,,0.02,WUHU21523XXSP,2013-07-08 22:41:00,
2013-07-08 18:46:00,80.6,72.0,30.09,NE,45,0.0,0.0,75,0.00,,,0.02,WUHU21523XXSP,2013-07-08 22:46:00,
2013-07-08 18:51:00,80.4,71.8,30.09,NE,45,0.0,0.0,75,0.00,,,0.02,WUHU21523XXSP,2013-07-08 22:51:00,
2013-07-08 18:56:00,80.4,72.2,30.09,NE,45,0.0,0.0,76,0.00,,,0.02,WUHU21523XXSP,2013-07-08 22:56:00,
2013-07-08 19:01:00,80.4,71.8,30.09,NE,45,0.0,0.0,75,0.00,,,0.02,WUHU21523XXSP,2013-07-08 23:01:00,
2013-07-08 19:11:00,80.2,71.6,30.09,NE,45,0.0,0.0,75,0.00,,,0.02,WUHU21523XXSP,2013-07-08 23:11:00,
2013-07-08 19:21:00,80.1,71.8,30.09,NE,45,0.0,0.0,76,0.00,,,0.02,WUHU21523XXSP,2013-07-08 23:21:00,
2013-07-08 19:31:00,79.9,71.6,30.09,NE,45,0.0,0.0,76,0.00,,,0.02,WUHU21523XXSP,2013-07-08 23:31:00,
2013-07-08 19:36:00,79.7,71.5,30.09,NE,45,0.0,0.0,76,0.00,,,0.02,WUHU21523XXSP,2013-07-08 23:36:00,
2013-07-08 19:41:00,79.5,71.7,30.09,NE,45,0.0,0.0,77,0.00,,,0.02,WUHU21523XXSP,2013-07-08 23:41:00,
2013-07-08 19:46:00,79.5,71.7,30.09,NE,45,0.0,0.0,77,0.00,,,0.02,WUHU21523XXSP,2013-07-08 23:46:00,
2013-07-08 19:51:00,79.3,71.5,30.09,NE,45,0.0,0.0,77,0.00,,,0.02,WUHU21523XXSP,2013-07-08 23:51:00,
2013-07-08 19:56:00,79.3,71.9,30.09,NE,45,0.0,0.0,78,0.00,,,0.02,WUHU21523XXSP,2013-07-08 23:56:00,
2013-07-08 20:01:00,79.2,71.7,30.10,NE,45,0.0,0.0,78,0.00,,,0.02,WUHU21523XXSP,2013-07-09 00:01:00,
2013-07-08 20:06:00,79.0,71.5,30.10,NE,45,0.0,0.0,78,0.00,,,0.02,WUHU21523XXSP,2013-07-09 00:06:00,
2013-07-08 20:11:00,79.0,71.9,30.10,NE,45,0.0,0.0,79,0.00,,,0.02,WUHU21523XXSP,2013-07-09 00:11:00,
2013-07-08 20:16:00,79.0,71.9,30.10,NE,45,0.0,0.0,79,0.00,,,0.02,WUHU21523XXSP,2013-07-09 00:16:00,
2013-07-08 20:21:00,78.6,71.6,30.10,NE,45,0.0,0.0,79,0.00,,,0.02,WUHU21523XXSP,2013-07-09 00:21:00,
2013-07-08 20:26:00,78.6,71.6,30.10,NE,45,0.0,0.0,79,0.00,,,0.02,WUHU21523XXSP,2013-07-09 00:26:00,
2013-07-08 20:36:00,78.3,71.6,30.10,NE,45,0.0,0.0,80,0.00,,,0.02,WUHU21523XXSP,2013-07-09 00:36:00,
2013-07-08 20:46:00,78.1,71.4,30.11,NE,45,0.0,0.0,80,0.00,,,0.02,WUHU21523XXSP,2013-07-09 00:46:00,
2013-07-08 20:51:00,77.9,71.6,30.11,NE,45,0.0,0.0,81,0.00,,,0.02,WUHU21523XXSP,2013-07-09 00:51:00,
2013-07-08 21:01:00,77.5,71.2,30.11,NE,45,0.0,0.0,81,0.00,,,0.02,WUHU21523XXSP,2013-07-09 01:01:00,
2013-07-08 21:06:00,77.5,71.2,30.12,NE,45,0.0,0.0,81,0.00,,,0.02,WUHU21523XXSP,2013-07-09 01:06:00,
2013-07-08 21:11:00,77.4,71.4,30.12,NE,45,0.0,0.0,82,0.00,,,0.02,WUHU21523XXSP,2013-07-09 01:11:00,
2013-07-08 21:16:00,77.4,71.4,30.12,NE,45,0.0,0.0,82,0.00,,,0.02,WUHU21523XXSP,2013-07-09 01:16:00,
2013-07-08 21:26:00,77.2,71.2,30.12,NE,45,0.0,0.0,82,0.00,,,0.02,WUHU21523XXSP,2013-07-09 01:26:00,
2013-07-08 21:31:00,77.2,71.2,30.12,NE,45,0.0,0.0,82,0.00,,,0.02,WUHU21523XXSP,2013-07-09 01:31:00,
2013-07-08 21:41:00,76.8,70.9,30.12,NE,45,0.0,0.0,82,0.00,,,0.02,WUHU21523XXSP,2013-07-09 01:41:00,
2013-07-08 21:51:00,76.8,71.2,30.13,NE,45,0.0,0.0,83,0.00,,,0.02,WUHU21523XXSP,2013-07-09 01:51:00,
2013-07-08 21:56:00,76.8,71.2,30.13,NE,45,0.0,0.0,83,0.00,,,0.02,WUHU21523XXSP,2013-07-09 01:56:00,
2013-07-08 22:06:00,76.6,71.4,30.14,NE,45,0.0,0.0,84,0.00,,,0.02,WUHU21523XXSP,2013-07-09 02:06:00,
2013-07-08 22:11:00,76.6,71.4,30.14,NE,45,0.0,0.0,84,0.00,,,0.02,WUHU21523XXSP,2013-07-09 02:11:00,
2013-07-08 22:16:00,76.6,71.4,30.14,NE,45,0.0,0.0,84,0.00,,,0.02,WUHU21523XXSP,2013-07-09 02:16:00,
2013-07-08 22:21:00,76.3,71.1,30.14,NE,45,0.0,0.0,84,0.00,,,0.02,WUHU21523XXSP,2013-07-09 02:21:00,
2013-07-08 22:26:00,76.3,71.1,30.14,NE,45,0.0,0.0,84,0.00,,,0.02,WUHU21523XXSP,2013-07-09 02:26:00,
2013-07-08 22:36:00,76.1,70.9,30.14,NE,45,0.0,0.0,84,0.00,,,0.02,WUHU21523XXSP,2013-07-09 02:36:00,
2013-07-08 22:41:00,75.9,70.8,30.14,NE,45,0.0,0.0,84,0.00,,,0.02,WUHU21523XXSP,2013-07-09 02:41:00,
2013-07-08 22:46:00,75.9,70.8,30.14,NE,45,0.0,0.0,84,0.00,,,0.02,WUHU21523XXSP,2013-07-09 02:46:00,
2013-07-08 22:51:00,75.7,70.6,30.14,NE,45,0.0,0.0,84,0.00,,,0.02,WUHU21523XXSP,2013-07-09 02:51:00,
2013-07-08 22:57:00,75.7,70.6,30.14,NE,45,0.0,0.0,84,0.00,,,0.02,WUHU21523XXSP,2013-07-09 02:57:00,
2013-07-08 23:06:00,75.4,70.6,30.13,NE,45,0.0,0.0,85,0.00,,,0.02,WUHU21523XXSP,2013-07-09 03:06:00,
2013-07-08 23:16:00,75.4,70.6,30.13,NE,45,0.0,0.0,85,0.00,,,0.02,WUHU21523XXSP,2013-07-09 03:16:00,
2013-07-08 23:21:00,75.2,70.4,30.13,NE,45,0.0,0.0,85,0.00,,,0.02,WUHU21523XXSP,2013-07-09 03:21:00,
2013-07-08 23:31:00,75.0,70.3,30.13,NE,45,0.0,0.0,85,0.00,,,0.02,WUHU21523XXSP,2013-07-09 03:31:00,
2013-07-08 23:36:00,75.0,70.3,30.14,NE,45,0.0,0.0,85,0.00,,,0.02,WUHU21523XXSP,2013-07-09 03:36:00,
2013-07-08 23:46:00,74.8,70.1,30.14,NE,45,0.0,0.0,85,0.00,,,0.02,WUHU21523XXSP,2013-07-09 03:46:00,
2013-07-08 23:56:00,74.5,69.7,30.14,NE,45,0.0,0.0,85,0.00,,,0.02,WUHU21523XXSP,2013-07-09 03:56:00,